FW4657 Weather Reports


time (UTC)temp
C
wind
direction
speed
KPH
gust
KPH
rain 1hr
cm
rain 24hr
cm
rain mn
cm
humidity
%
barometer
mb
20260507213440 13 256 0.0 3.2 0.00 0.05 0.05 38 1007.9
20260507212937 13 300 3.2 6.4 0.00 0.05 0.05 39 1007.9
20260507212433 13 180 1.6 3.2 0.00 0.05 0.05 40 1007.9
20260507211930 13 342 0.0 4.8 0.00 0.05 0.05 41 1007.9
20260507211427 13 321 1.6 3.2 0.00 0.05 0.05 40 1007.9
20260507210923 13 280 0.0 4.8 0.00 0.05 0.05 40 1007.9
20260507210420 13 11 1.6 1.6 0.00 0.05 0.05 42 1007.9
20260507205917 13 18 0.0 0.0 0.00 0.05 0.05 42 1007.9
20260507205414 13 320 3.2 3.2 0.00 0.05 0.05 41 1007.9
20260507204910 13 304 0.0 3.2 0.00 0.05 0.05 42 1007.9
20260507204407 13 309 1.6 6.4 0.00 0.05 0.05 42 1007.9
20260507203905 13 8 1.6 3.2 0.00 0.05 0.05 42 1007.9
20260507203403 13 343 0.0 0.0 0.00 0.05 0.05 43 1007.6
20260507202858 13 188 0.0 0.0 0.00 0.05 0.05 43 1007.9
20260507202355 13 294 0.0 3.2 0.00 0.05 0.05 42 1007.6
20260507201850 13 186 0.0 3.2 0.00 0.05 0.05 42 1007.6
20260507201346 13 307 0.0 1.6 0.00 0.05 0.05 44 1007.6
20260507200842 13 336 3.2 4.8 0.00 0.05 0.05 44 1007.6
20260507200333 13 317 0.0 4.8 0.00 0.05 0.05 45 1007.6
20260507195829 13 225 0.0 0.0 0.00 0.05 0.05 44 1007.9
20260507195327 13 328 3.2 4.8 0.00 0.05 0.05 44 1007.6
20260507194824 13 281 0.0 0.0 0.00 0.05 0.05 43 1007.9
20260507194320 13 320 0.0 4.8 0.00 0.05 0.05 44 1007.9
20260507193817 13 341 0.0 3.2 0.00 0.05 0.05 45 1007.6
20260507193314 13 310 0.0 1.6 0.00 0.05 0.05 46 1007.9
20260507192809 13 286 0.0 0.0 0.00 0.05 0.05 46 1007.9
20260507192307 13 299 0.0 0.0 0.00 0.05 0.05 44 1007.6
20260507191803 13 9 0.0 0.0 0.00 0.05 0.05 43 1007.9
20260507191259 13 323 0.0 1.6 0.00 0.05 0.05 44 1007.9
20260507190756 13 337 1.6 3.2 0.00 0.05 0.05 44 1007.9
20260507190255 13 301 1.6 3.2 0.00 0.05 0.05 44 1007.9
20260507185753 14 315 0.0 1.6 0.00 0.05 0.05 45 1007.9
20260507185249 13 1 0.0 3.2 0.00 0.05 0.05 44 1007.9
20260507184747 14 343 3.2 6.4 0.00 0.05 0.05 42 1007.9
20260507184245 14 338 3.2 3.2 0.00 0.05 0.05 43 1007.9
20260507183741 16 322 1.6 3.2 0.00 0.05 0.05 42 1007.9
20260507183238 15 312 4.8 11.3 0.00 0.05 0.05 40 1007.9
20260507182736 15 319 3.2 6.4 0.00 0.05 0.05 40 1007.9
20260507182230 15 286 3.2 6.4 0.00 0.05 0.05 41 1007.6
20260507181728 16 285 0.0 11.3 0.00 0.05 0.05 40 1007.9
20260507181224 15 68 0.0 4.8 0.00 0.05 0.05 43 1007.9
20260507180720 15 55 1.6 4.8 0.00 0.05 0.05 42 1007.9
20260507180217 15 174 0.0 3.2 0.00 0.05 0.05 44 1007.9
20260507175713 15 47 0.0 6.4 0.00 0.05 0.05 45 1007.9
20260507175210 15 33 3.2 4.8 0.00 0.05 0.05 42 1007.9
20260507174708 15 297 1.6 3.2 0.00 0.05 0.05 43 1008.3
20260507174205 15 334 0.0 3.2 0.00 0.05 0.05 44 1008.3
20260507173702 15 281 3.2 3.2 0.00 0.05 0.05 49 1007.9
20260507173159 15 348 0.0 4.8 0.00 0.05 0.05 53 1008.3
20260507172656 15 300 1.6 4.8 0.00 0.05 0.05 55 1007.9
20260507172147 14 332 0.0 4.8 0.00 0.05 0.05 53 1008.3
20260507171647 15 308 3.2 6.4 0.00 0.05 0.05 55 1008.3
20260507171145 14 160 0.0 3.2 0.00 0.05 0.05 57 1008.3
20260507170642 14 328 3.2 3.2 0.00 0.05 0.05 57 1008.3
20260507170139 13 29 3.2 4.8 0.00 0.05 0.05 57 1008.3
20260507165634 14 299 1.6 9.7 0.00 0.05 0.05 56 1007.9
20260507165131 13 44 0.0 9.7 0.00 0.05 0.05 56 1008.3
20260507164626 13 300 1.6 3.2 0.00 0.05 0.05 55 1008.6
20260507164124 13 125 1.6 4.8 0.00 0.05 0.05 55 1008.6
20260507163621 14 350 1.6 3.2 0.00 0.05 0.05 57 1009.0
20260507163119 15 131 3.2 4.8 0.00 0.05 0.05 55 1008.3
20260507162614 14 214 0.0 1.6 0.00 0.05 0.05 61 1008.6
20260507162111 13 57 0.0 3.2 0.00 0.05 0.05 58 1008.6
20260507161607 14 228 1.6 3.2 0.00 0.05 0.05 55 1008.6
20260507161104 15 63 1.6 3.2 0.00 0.05 0.05 55 1008.6
20260507160600 15 48 0.0 3.2 0.00 0.05 0.05 54 1008.6
20260507160057 15 169 0.0 4.8 0.00 0.05 0.05 56 1009.0
20260507155552 13 164 0.0 0.0 0.00 0.05 0.05 60 1009.0
20260507155049 13 234 0.0 0.0 0.00 0.05 0.05 62 1009.0
20260507154546 13 330 0.0 1.6 0.00 0.05 0.05 60 1009.0
20260507154043 13 72 0.0 1.6 0.00 0.05 0.05 61 1009.0
20260507153539 13 331 0.0 0.0 0.00 0.05 0.05 61 1009.0
20260507153036 13 340 0.0 0.0 0.00 0.05 0.05 60 1009.0
20260507152531 13 316 0.0 3.2 0.00 0.05 0.05 61 1009.3
20260507152023 13 359 0.0 3.2 0.00 0.05 0.05 59 1009.3
20260507151519 14 290 0.0 4.8 0.00 0.05 0.05 59 1009.3
20260507151016 13 337 0.0 3.2 0.00 0.05 0.05 59 1009.0
20260507150513 13 323 0.0 1.6 0.00 0.05 0.05 60 1009.3
20260507150010 13 291 0.0 3.2 0.00 0.05 0.05 59 1009.3
20260507145504 13 229 0.0 1.6 0.00 0.05 0.05 57 1009.0
20260507145003 13 306 1.6 1.6 0.00 0.05 0.05 57 1009.0
20260507144459 13 153 0.0 0.0 0.00 0.05 0.05 59 1009.0
20260507143956 13 317 1.6 6.4 0.00 0.05 0.05 61 1009.3
20260507143454 14 16 1.6 1.6 0.00 0.05 0.05 58 1009.3
20260507142950 15 7 4.8 6.4 0.00 0.05 0.05 57 1009.0
20260507142446 15 158 0.0 0.0 0.00 0.05 0.05 56 1009.3
20260507141943 15 65 0.0 0.0 0.00 0.05 0.05 60 1009.3
20260507141439 13 353 1.6 3.2 0.00 0.05 0.05 58 1009.3
20260507140936 15 347 0.0 1.6 0.00 0.05 0.05 58 1009.3
20260507140433 13 51 1.6 6.4 0.00 0.05 0.05 62 1009.3
20260507135930 13 78 1.6 3.2 0.00 0.05 0.05 59 1009.3
20260507135427 13 238 0.0 0.0 0.00 0.05 0.05 60 1009.6
20260507134924 14 167 0.0 0.0 0.00 0.05 0.05 60 1009.6
20260507134421 13 316 0.0 3.2 0.00 0.05 0.05 60 1009.3
20260507133917 14 294 3.2 4.8 0.00 0.05 0.05 59 1009.6
20260507133413 14 218 1.6 6.4 0.00 0.05 0.05 58 1009.6
20260507132911 13 44 0.0 3.2 0.00 0.05 0.05 63 1009.6
20260507132407 13 0 0.0 3.2 0.00 0.05 0.05 62 1010.0
20260507131906 13 305 0.0 4.8 0.00 0.05 0.05 64 1009.6
20260507131401 13 334 3.2 4.8 0.00 0.05 0.05 63 1009.6
20260507130858 13 294 1.6 3.2 0.00 0.05 0.05 64 1010.0
20260507130354 13 344 3.2 3.2 0.00 0.05 0.05 66 1009.6
20260507125854 12 221 3.2 9.7 0.00 0.05 0.05 69 1009.6
20260507125351 12 42 1.6 3.2 0.00 0.05 0.05 64 1009.6
20260507124848 12 332 0.0 1.6 0.00 0.05 0.05 66 1009.6
20260507124344 11 283 0.0 6.4 0.00 0.05 0.05 68 1010.0
20260507123843 11 312 0.0 3.2 0.00 0.05 0.05 70 1009.6
20260507123340 11 297 0.0 3.2 0.00 0.05 0.05 71 1009.6
20260507122836 11 23 1.6 3.2 0.00 0.05 0.05 69 1009.6
20260507122331 11 287 3.2 4.8 0.00 0.05 0.05 71 1010.0
20260507121828 11 352 3.2 4.8 0.00 0.05 0.05 73 1010.4
20260507121323 11 343 1.6 4.8 0.00 0.05 0.05 71 1009.6
20260507120820 10 280 1.6 3.2 0.00 0.05 0.05 72 1010.0
20260507120317 11 337 1.6 3.2 0.00 0.05 0.05 74 1009.6
20260507115813 10 338 3.2 3.2 0.00 0.05 0.05 74 1010.0
20260507115309 10 312 0.0 0.0 0.00 0.05 0.05 74 1010.0
20260507114805 10 278 0.0 3.2 0.00 0.05 0.05 75 1010.0
20260507114302 10 329 1.6 1.6 0.00 0.05 0.05 75 1010.0
20260507113759 10 320 0.0 0.0 0.00 0.05 0.05 75 1010.4
20260507113256 10 283 0.0 3.2 0.00 0.05 0.05 77 1010.0
20260507112754 10 342 0.0 0.0 0.00 0.05 0.05 77 1010.0
20260507112250 8 321 0.0 0.0 0.00 0.05 0.05 76 1010.0
20260507111748 10 13 0.0 0.0 0.00 0.05 0.05 81 1010.4
20260507111239 10 337 0.0 0.0 0.00 0.05 0.05 87 1010.4
20260507110735 8 184 0.0 0.0 0.00 0.05 0.05 91 1010.4
20260507110232 8 170 0.0 0.0 0.00 0.05 0.05 94 1010.4
20260507105729 7 169 0.0 0.0 0.00 0.05 0.05 94 1010.4
20260507105225 7 230 0.0 0.0 0.00 0.05 0.05 92 1010.4
20260507104722 7 217 0.0 0.0 0.00 0.05 0.05 93 1010.4
20260507104219 7 329 0.0 0.0 0.00 0.05 0.05 92 1010.8
20260507103714 6 334 0.0 1.6 0.00 0.05 0.05 96 1010.4
20260507103211 6 333 1.6 3.2 0.00 0.05 0.05 97 1010.4
20260507102707 5 320 1.6 3.2 0.00 0.05 0.05 99 1010.4
20260507102204 5 312 0.0 0.0 0.00 0.05 0.05 99 1010.8
20260507101700 5 294 0.0 0.0 0.00 0.05 0.05 99 1010.4
20260507101155 5 282 0.0 0.0 0.00 0.05 0.05 99 1010.4
20260507100653 5 261 0.0 0.0 0.00 0.05 0.05 98 1010.0
20260507100151 5 208 0.0 0.0 0.00 0.05 0.05 98 1010.0
20260507095649 5 322 0.0 0.0 0.00 0.05 0.05 99 1010.4
20260507095145 5 188 0.0 0.0 0.00 0.05 0.05 99 1010.4
20260507094642 5 255 0.0 0.0 0.00 0.05 0.05 99 1010.0
20260507094138 5 293 0.0 0.0 0.00 0.05 0.05 99 1010.0
20260507093636 5 227 0.0 0.0 0.00 0.05 0.05 99 1010.0
20260507093135 5 203 0.0 0.0 0.00 0.05 0.05 99 1010.0
20260507092631 5 275 0.0 0.0 0.00 0.05 0.05 99 1009.6
20260507092127 5 214 0.0 0.0 0.00 0.05 0.05 99 1010.0
20260507091624 5 256 0.0 0.0 0.00 0.05 0.05 99 1009.6
20260507091120 5 294 0.0 0.0 0.00 0.05 0.05 99 1009.6
20260507090616 5 175 0.0 0.0 0.00 0.05 0.05 99 1009.6
20260507090114 5 208 0.0 0.0 0.00 0.05 0.05 99 1009.6
20260507085610 5 206 0.0 0.0 0.00 0.05 0.05 99 1009.6
20260507085107 5 174 0.0 0.0 0.00 0.05 0.05 99 1009.6
20260507084604 5 241 0.0 0.0 0.00 0.05 0.05 99 1009.6
20260507084101 5 184 0.0 0.0 0.00 0.05 0.05 99 1010.0
20260507083557 5 196 0.0 0.0 0.00 0.05 0.05 99 1009.6
20260507083054 5 217 0.0 0.0 0.00 0.05 0.05 99 1009.6
20260507082550 5 231 0.0 0.0 0.00 0.05 0.05 99 1010.4
20260507082047 5 353 0.0 1.6 0.00 0.05 0.05 99 1010.0
20260507081542 5 217 0.0 0.0 0.00 0.05 0.05 99 1009.6
20260507081034 5 226 0.0 0.0 0.00 0.05 0.05 99 1009.3
20260507080530 6 300 0.0 0.0 0.00 0.05 0.05 99 1009.0
20260507080026 6 199 0.0 0.0 0.00 0.05 0.05 99 1009.6
20260507075522 6 167 0.0 0.0 0.00 0.05 0.05 99 1009.3
20260507075019 6 32 0.0 1.6 0.00 0.05 0.05 99 1009.3
20260507074515 6 230 3.2 4.8 0.00 0.05 0.05 99 1009.6
20260507074014 6 188 0.0 0.0 0.00 0.05 0.05 98 1009.3
20260507073510 6 282 0.0 1.6 0.00 0.05 0.05 98 1009.6
20260507073006 6 312 3.2 3.2 0.00 0.05 0.05 98 1009.6
20260507072504 6 281 1.6 3.2 0.00 0.05 0.05 98 1009.6
20260507072001 6 283 3.2 4.8 0.00 0.05 0.05 98 1009.3
20260507071458 6 338 1.6 3.2 0.00 0.05 0.05 98 1009.6
20260507070954 6 291 0.0 3.2 0.00 0.05 0.05 97 1009.3
20260507070452 6 319 1.6 3.2 0.00 0.05 0.05 97 1009.3
20260507065949 6 307 1.6 4.8 0.00 0.05 0.05 97 1009.0
20260507065445 6 326 3.2 4.8 0.00 0.05 0.05 98 1009.0
20260507064942 6 341 3.2 4.8 0.00 0.05 0.05 99 1009.0
20260507064441 6 325 3.2 3.2 0.00 0.05 0.05 99 1009.0
20260507063938 6 334 1.6 3.2 0.00 0.05 0.05 99 1009.0
20260507063435 6 323 1.6 3.2 0.00 0.05 0.05 99 1009.0
20260507062932 6 211 1.6 3.2 0.00 0.05 0.05 99 1009.0
20260507062429 6 328 0.0 3.2 0.00 0.05 0.05 99 1009.0
20260507061926 7 254 0.0 0.0 0.00 0.05 0.05 99 1008.6
20260507061424 6 323 0.0 0.0 0.00 0.05 0.05 99 1008.6
20260507060923 7 185 0.0 0.0 0.00 0.05 0.05 99 1008.6
20260507060419 7 168 1.6 3.2 0.00 0.05 0.05 99 1008.6
20260507055916 6 208 0.0 0.0 0.00 0.05 0.05 99 1008.6
20260507055410 6 236 0.0 0.0 0.00 0.05 0.05 99 1008.6
20260507054908 7 219 0.0 0.0 0.00 0.05 0.05 99 1008.6
20260507054404 7 206 0.0 0.0 0.00 0.05 0.05 99 1008.6
20260507053901 7 250 0.0 0.0 0.00 0.05 0.05 99 1008.6
20260507053359 7 184 0.0 0.0 0.00 0.05 0.05 99 1008.6
20260507052858 6 232 0.0 0.0 0.00 0.05 0.05 99 1008.3
20260507052354 7 204 0.0 0.0 0.00 0.05 0.05 99 1008.3
20260507051852 6 222 0.0 4.8 0.00 0.05 0.05 99 1008.3
20260507051349 7 178 1.6 3.2 0.00 0.05 0.05 99 1008.3
20260507050846 7 341 1.6 3.2 0.00 0.05 0.05 99 1008.3
20260507050342 7 216 0.0 4.8 0.00 0.05 0.05 99 1007.9
20260507045839 7 306 1.6 3.2 0.00 0.05 0.05 99 1007.9
20260507045335 7 304 1.6 3.2 0.00 0.05 0.05 99 1008.3
20260507044833 7 335 3.2 4.8 0.00 0.05 0.05 99 1008.6
20260507044329 7 305 1.6 3.2 0.00 0.05 0.05 99 1008.6
20260507043825 7 338 3.2 4.8 0.00 0.05 0.05 99 1008.6
20260507043322 7 337 1.6 3.2 0.00 0.05 0.05 99 1008.6
20260507042818 8 335 3.2 3.2 0.00 0.05 0.05 99 1009.0
20260507042314 8 316 1.6 3.2 0.00 0.05 0.05 99 1008.6
20260507041811 8 315 3.2 4.8 0.13 0.05 0.05 99 1008.6
20260507041308 8 326 3.2 4.8 0.30 0.05 0.05 99 1008.6
20260507040805 8 330 0.0 0.0 0.13 0.03 0.03 99 1008.6
20260507040301 8 302 0.0 3.2 0.13 0.00 0.00 99 1009.0
20260507035757 8 306 1.6 1.6 0.18 0.94 0.94 99 1009.0
20260507035252 8 333 0.0 0.0 0.00 0.91 0.91 99 1009.0
20260507034750 8 292 1.6 1.6 0.13 0.89 0.89 99 1008.6
20260507034247 8 316 3.2 4.8 0.13 0.89 0.89 99 1008.6
20260507033745 8 286 1.6 3.2 0.00 0.86 0.86 99 1008.3
20260507033242 8 321 1.6 3.2 0.00 0.86 0.86 99 1008.3
20260507032739 10 329 1.6 3.2 0.00 0.86 0.86 99 1008.3
20260507032236 10 299 3.2 3.2 0.00 0.86 0.86 99 1007.9
20260507031732 10 309 1.6 1.6 0.00 0.86 0.86 99 1008.3
20260507031229 10 327 3.2 3.2 0.00 0.86 0.86 99 1008.3
20260507030726 10 173 1.6 4.8 0.00 0.86 0.86 99 1007.9
20260507030223 10 336 1.6 3.2 0.00 0.86 0.86 99 1007.9
20260507025720 10 329 0.0 1.6 0.00 0.86 0.86 99 1007.9
20260507025217 10 329 1.6 3.2 0.30 0.86 0.86 99 1007.9
20260507024716 10 312 3.2 3.2 0.13 0.84 0.84 99 1007.6
20260507024213 11 248 0.0 0.0 0.00 0.81 0.81 99 1007.9
20260507023708 11 218 0.0 0.0 0.18 0.81 0.81 99 1007.9
20260507023205 11 331 0.0 0.0 0.18 0.81 0.81 99 1007.9
20260507022702 11 331 0.0 0.0 0.18 0.79 0.79 99 1007.6
20260507022158 11 230 0.0 0.0 0.13 0.76 0.76 99 1007.9
20260507021654 11 202 0.0 0.0 0.13 0.76 0.76 99 1007.6
20260507021149 11 290 0.0 0.0 0.00 0.74 0.74 99 1007.9
20260507020649 11 288 0.0 0.0 0.00 0.74 0.74 99 1007.6
20260507020144 11 248 0.0 0.0 0.00 0.74 0.74 99 1007.6
20260507015643 11 312 0.0 0.0 0.00 0.74 0.74 99 1007.3
20260507015140 11 314 0.0 0.0 0.00 0.74 0.74 99 1007.6
20260507014636 12 311 0.0 0.0 0.00 0.74 0.74 99 1007.6
20260507014132 12 184 0.0 0.0 0.00 0.74 0.74 99 1007.6
20260507013629 12 333 0.0 0.0 0.00 0.74 0.74 99 1007.6
20260507013126 13 343 0.0 0.0 0.00 0.74 0.74 99 1007.6
20260507012624 13 336 0.0 0.0 0.00 0.74 0.74 99 1007.6
20260507012119 13 309 0.0 0.0 0.00 0.74 0.74 99 1007.9
20260507011618 13 237 0.0 0.0 0.00 0.74 0.74 99 1007.6
20260507011113 13 217 0.0 0.0 0.00 0.74 0.74 99 1007.6
20260507010608 13 296 0.0 0.0 0.00 0.74 0.74 99 1007.6
20260507010104 13 42 0.0 0.0 0.00 0.74 0.74 99 1007.6
20260507005602 13 190 0.0 0.0 0.00 0.74 0.74 99 1007.6
20260507005058 13 36 0.0 0.0 0.00 0.74 0.74 99 1007.6
20260507004555 13 49 0.0 0.0 0.00 0.74 0.74 99 1007.6
20260507004052 13 347 1.6 1.6 0.00 0.74 0.74 99 1007.3
20260507003548 13 101 0.0 1.6 0.00 0.74 0.74 99 1007.3
20260507003043 13 123 1.6 4.8 0.00 0.74 0.74 99 1007.6
20260507002540 13 107 0.0 0.0 0.18 0.74 0.74 99 1007.3
20260507002036 13 136 0.0 0.0 0.48 0.74 0.74 99 1007.3
20260507001532 13 112 0.0 0.0 0.30 0.71 0.71 99 1007.3
20260507001025 13 79 0.0 0.0 0.13 0.66 0.66 99 1007.3
20260507000521 13 71 0.0 0.0 0.30 0.66 0.66 99 1007.3
20260507000016 13 65 0.0 0.0 0.18 0.64 0.64 99 1006.9
20260506235514 13 75 0.0 1.6 0.00 0.61 0.61 99 1007.3
20260506235009 13 101 1.6 3.2 0.00 0.61 0.61 99 1006.6
20260506234507 13 73 0.0 3.2 0.00 0.61 0.61 99 1007.3
20260506234004 13 17 0.0 0.0 0.00 0.61 0.61 99 1006.9
20260506233501 13 55 0.0 1.6 0.00 0.61 0.61 99 1006.9
20260506232957 13 29 0.0 0.0 0.00 0.61 0.61 99 1006.9
20260506232454 13 62 0.0 0.0 0.00 0.61 0.61 99 1006.9
20260506231950 13 195 0.0 0.0 0.00 0.61 0.61 99 1007.3
20260506231447 13 315 0.0 0.0 0.00 0.61 0.61 99 1007.3
20260506230944 13 352 0.0 0.0 0.13 0.61 0.61 99 1006.9
20260506230440 13 356 1.6 1.6 0.13 0.61 0.61 99 1007.3
20260506225937 13 153 0.0 1.6 0.18 0.58 0.58 99 1006.9
20260506225435 13 110 0.0 1.6 0.00 0.58 0.58 99 1007.3
20260506224931 13 78 0.0 3.2 0.13 0.56 0.56 99 1007.3
20260506224429 13 100 0.0 0.0 0.13 0.56 0.56 99 1007.6
20260506223925 13 42 0.0 0.0 0.18 0.53 0.53 99 1007.3
20260506223420 14 54 0.0 0.0 0.36 0.53 0.53 99 1007.3
20260506222918 14 350 0.0 0.0 0.48 0.51 0.51 99 1007.3
20260506222414 14 51 0.0 0.0 0.30 0.48 0.48 99 1007.6
20260506221911 14 93 0.0 0.0 0.30 0.43 0.43 99 1007.6
20260506221408 14 6 0.0 0.0 0.18 0.41 0.41 99 1007.6
20260506220906 14 180 0.0 0.0 0.00 0.38 0.38 99 1007.6
20260506220402 14 187 0.0 0.0 0.13 0.38 0.38 99 1007.6
20260506215858 14 309 0.0 1.6 0.13 0.38 0.38 99 1007.9
20260506215354 14 89 0.0 1.6 0.00 0.36 0.36 99 1007.9
20260506214850 14 100 0.0 1.6 0.00 0.36 0.36 99 1007.9
20260506214347 14 82 0.0 0.0 0.00 0.36 0.36 99 1007.9
20260506213845 14 95 0.0 0.0 0.00 0.36 0.36 99 1007.9